TimeCST,TemperatureF,Dew PointF,Humidity,Sea Level PressureIn,VisibilityMPH,Wind Direction,Wind SpeedMPH,Gust SpeedMPH,PrecipitationIn,Events,Conditions,WindDirDegrees,DateUTC
12:15 AM,71.6,59.0,64,30.19,9.0,NE,19.6,-,N/A,,Overcast,50,2012-11-16 06:15:00
12:35 AM,71.6,59.0,64,30.18,10.0,NE,20.7,-,N/A,,Overcast,50,2012-11-16 06:35:00
12:55 AM,71.6,59.0,64,30.18,9.0,NE,20.7,-,N/A,,Overcast,50,2012-11-16 06:55:00
1:15 AM,71.6,59.0,64,30.19,9.0,NE,19.6,-,N/A,,Overcast,50,2012-11-16 07:15:00
1:35 AM,71.6,59.0,64,30.19,10.0,NE,23.0,-,N/A,,Overcast,40,2012-11-16 07:35:00
1:55 AM,71.6,59.0,64,30.18,10.0,NE,21.9,-,N/A,,Overcast,40,2012-11-16 07:55:00
2:15 AM,71.6,59.0,64,30.18,-9999.0,NE,21.9,-,N/A,,Overcast,40,2012-11-16 08:15:00
2:35 AM,71.6,59.0,64,30.18,9.0,NE,24.2,-,N/A,,Overcast,40,2012-11-16 08:35:00
2:55 AM,71.6,59.0,64,30.18,10.0,NE,20.7,-,N/A,,Overcast,40,2012-11-16 08:55:00
3:35 AM,71.6,59.0,64,30.18,10.0,NE,25.3,-,N/A,,Overcast,40,2012-11-16 09:35:00
3:55 AM,71.6,59.0,64,30.18,9.0,NE,24.2,-,N/A,,Overcast,40,2012-11-16 09:55:00
4:15 AM,71.6,59.0,64,30.17,9.0,NE,23.0,-,N/A,,Overcast,50,2012-11-16 10:15:00
4:35 AM,71.6,59.0,64,30.17,9.0,NE,21.9,-,N/A,,Overcast,40,2012-11-16 10:35:00
4:55 AM,71.6,59.0,64,30.17,9.0,NE,23.0,-,N/A,,Overcast,40,2012-11-16 10:55:00
5:15 AM,71.6,59.0,64,30.17,10.0,NE,25.3,-,N/A,,Overcast,40,2012-11-16 11:15:00
5:35 AM,71.6,59.0,64,30.18,9.0,NE,24.2,-,N/A,,Overcast,40,2012-11-16 11:35:00
5:55 AM,71.6,57.2,60,30.18,9.0,NNE,18.4,26.5,N/A,,Overcast,30,2012-11-16 11:55:00
6:15 AM,71.6,57.2,60,30.18,10.0,NE,24.2,-,N/A,,Overcast,40,2012-11-16 12:15:00
6:35 AM,71.6,57.2,60,30.19,9.0,NE,24.2,-,N/A,,Overcast,40,2012-11-16 12:35:00
6:55 AM,71.6,57.2,60,30.20,9.0,NE,20.7,-,N/A,,Overcast,40,2012-11-16 12:55:00
7:15 AM,71.6,57.2,60,30.20,9.0,NE,24.2,-,N/A,,Overcast,40,2012-11-16 13:15:00
7:35 AM,71.6,57.2,60,30.20,5.0,NE,23.0,-,N/A,,Haze,40,2012-11-16 13:35:00
7:55 AM,71.6,55.4,57,30.22,9.0,NE,20.7,-,N/A,,Overcast,40,2012-11-16 13:55:00
8:15 AM,71.6,55.4,57,30.22,9.0,NNE,17.3,24.2,N/A,,Overcast,30,2012-11-16 14:15:00
8:35 AM,71.6,55.4,57,30.23,9.0,NNE,17.3,27.6,N/A,,Overcast,30,2012-11-16 14:35:00
8:55 AM,-9999,-9999,N/A,30.23,-9999.0,NNE,20.7,27.6,N/A,,Unknown,30,2012-11-16 14:55:00
9:15 AM,71.6,57.2,60,30.24,9.0,NNE,18.4,26.5,N/A,,Unknown,30,2012-11-16 15:15:00
9:35 AM,71.6,55.4,57,30.25,9.0,NNE,18.4,27.6,N/A,,Mostly Cloudy,30,2012-11-16 15:35:00
9:55 AM,71.6,55.4,57,30.25,8.0,NNE,21.9,-,N/A,,Scattered Clouds,30,2012-11-16 15:55:00
10:15 AM,71.6,57.2,60,30.26,9.0,NNE,15.0,28.8,N/A,,Unknown,20,2012-11-16 16:15:00
10:35 AM,71.6,57.2,60,30.26,9.0,NE,23.0,-,N/A,,Partly Cloudy,40,2012-11-16 16:35:00
10:55 AM,71.6,57.2,60,30.26,8.0,NNE,17.3,26.5,N/A,,Mostly Cloudy,30,2012-11-16 16:55:00
11:15 AM,71.6,55.4,57,30.26,8.0,NNE,17.3,25.3,N/A,,Mostly Cloudy,30,2012-11-16 17:15:00
11:35 AM,71.6,55.4,57,30.25,9.0,NNE,17.3,25.3,N/A,,Mostly Cloudy,30,2012-11-16 17:35:00
11:55 AM,71.6,55.4,57,30.25,9.0,NNE,17.3,25.3,N/A,,Scattered Clouds,30,2012-11-16 17:55:00
12:15 PM,71.6,55.4,57,30.25,9.0,NNE,19.6,-,N/A,,Mostly Cloudy,30,2012-11-16 18:15:00
12:35 PM,69.8,53.6,56,30.23,8.0,NE,21.9,-,N/A,,Mostly Cloudy,40,2012-11-16 18:35:00
12:55 PM,69.8,53.6,56,30.23,8.0,NNE,18.4,26.5,N/A,,Mostly Cloudy,30,2012-11-16 18:55:00
1:15 PM,69.8,53.6,56,30.22,7.0,NNE,12.7,27.6,N/A,,Scattered Clouds,20,2012-11-16 19:15:00
1:35 PM,69.8,53.6,56,30.21,8.0,NE,20.7,-,N/A,,Scattered Clouds,40,2012-11-16 19:35:00
1:55 PM,69.8,53.6,56,30.21,7.0,NNE,13.8,21.9,N/A,,Mostly Cloudy,30,2012-11-16 19:55:00
2:15 PM,69.8,53.6,56,30.21,9.0,NNE,11.5,-,N/A,,Mostly Cloudy,20,2012-11-16 20:15:00
2:35 PM,69.8,51.8,53,30.21,9.0,NNE,17.3,24.2,N/A,,Mostly Cloudy,30,2012-11-16 20:35:00
2:55 PM,69.8,53.6,56,30.21,3.0,NNE,16.1,25.3,N/A,,Haze,30,2012-11-16 20:55:00
3:15 PM,69.8,51.8,53,30.21,9.0,NNE,11.5,20.7,N/A,,Overcast,20,2012-11-16 21:15:00
3:35 PM,69.8,51.8,53,30.20,8.0,NNE,15.0,23.0,N/A,,Overcast,30,2012-11-16 21:35:00
3:55 PM,69.8,53.6,56,30.21,9.0,NNE,11.5,20.7,N/A,,Overcast,30,2012-11-16 21:55:00
4:15 PM,69.8,51.8,53,30.21,9.0,NNE,10.4,21.9,N/A,,Overcast,20,2012-11-16 22:15:00
4:35 PM,69.8,51.8,53,30.22,10.0,NNE,16.1,23.0,N/A,,Overcast,30,2012-11-16 22:35:00
4:55 PM,69.8,53.6,56,30.22,9.0,NNE,10.4,18.4,N/A,,Overcast,20,2012-11-16 22:55:00
5:15 PM,69.8,53.6,56,30.23,10.0,NNE,13.8,20.7,N/A,,Overcast,30,2012-11-16 23:15:00
5:35 PM,69.8,53.6,56,30.24,8.0,NNE,13.8,-,N/A,,Overcast,30,2012-11-16 23:35:00
5:55 PM,69.8,51.8,53,30.23,7.0,NNE,10.4,19.6,N/A,,Overcast,20,2012-11-16 23:55:00
6:15 PM,69.8,51.8,53,30.23,6.0,NNE,15.0,-,N/A,,Haze,30,2012-11-17 00:15:00
6:35 PM,69.8,51.8,53,30.24,9.0,NNE,15.0,20.7,N/A,,Overcast,30,2012-11-17 00:35:00
7:15 PM,69.8,50.0,49,30.24,10.0,NNE,15.0,21.9,N/A,,Overcast,30,2012-11-17 01:15:00
7:55 PM,68.0,50.0,52,30.26,9.0,NNE,16.1,-,N/A,,Overcast,30,2012-11-17 01:55:00
8:15 PM,69.8,51.8,53,30.26,9.0,NE,15.0,21.9,N/A,,Scattered Clouds,40,2012-11-17 02:15:00
8:35 PM,68.0,50.0,52,30.27,10.0,NNE,12.7,19.6,N/A,,Clear,30,2012-11-17 02:35:00
8:55 PM,68.0,50.0,52,30.27,8.0,NNE,9.2,18.4,N/A,,Clear,20,2012-11-17 02:55:00
9:15 PM,69.8,51.8,53,30.28,9.0,NNE,8.1,18.4,N/A,,Clear,30,2012-11-17 03:15:00
9:35 PM,68.0,51.8,56,30.28,9.0,NNE,8.1,17.3,N/A,,Partly Cloudy,20,2012-11-17 03:35:00
9:55 PM,68.0,50.0,52,30.28,7.0,NNE,13.8,-,N/A,,Clear,30,2012-11-17 03:55:00
10:15 PM,68.0,50.0,52,30.27,9.0,NNE,10.4,19.6,N/A,,Clear,30,2012-11-17 04:15:00
10:35 PM,68.0,51.8,56,30.28,10.0,NNE,8.1,17.3,N/A,,Clear,20,2012-11-17 04:35:00
10:55 PM,68.0,51.8,56,30.28,10.0,NNE,10.4,-,N/A,,Clear,30,2012-11-17 04:55:00
11:15 PM,68.0,51.8,56,30.28,10.0,NNE,12.7,18.4,N/A,,Partly Cloudy,30,2012-11-17 05:15:00
11:35 PM,68.0,51.8,56,30.27,9.0,NNE,11.5,19.6,N/A,,Scattered Clouds,30,2012-11-17 05:35:00
11:55 PM,68.0,51.8,56,30.27,9.0,NNE,11.5,17.3,N/A,,Partly Cloudy,30,2012-11-17 05:55:00